Flag for Madagascar Weather past 2 weeks in Toamasina, Madagascar

Now
79 °F

Passing clouds.


Feels Like: 82 °F
Forecast: 62 / 80 °F
Wind: 9 mph from Southeast

Location: Tamatave

Current Time: Aug 31, 2014 at 1:28:16 PM

Latest Report: Aug 31, 2014 at 1:00 PM


Visibility: N/A

Pressure: 30.04 "Hg

Humidity: 84%

Dew point: 73 °F

Location of ToamasinaLocation

Historic Weather in Toamasina — Graph

°F

Toamasina temperature yesterday

Maximum temperature yesterday: 81 °F (at 11:00 AM)
Minimum temperature yesterday: 66 °F (at 5:00 AM)
Average temperature yesterday: 74 °F

Past Weeks' High & Low Weather Summary

 TemperatureHumidityPressure
High84 °F (Aug 26, 12:00 PM)100% (Aug 17, 12:00 AM)30.24 "Hg (Aug 17, 12:00 AM)
Low61 °F (Aug 17, 12:00 AM)40% (Aug 26, 1:00 PM)29.83 "Hg (Aug 24, 2:00 PM)
Average72 °F83%30.06 "Hg
* Reported Aug 16 12:00 Noon — Aug 31 12:00 Noon, Toamasina, Weather by CustomWeather, © 2014

Note: Actual official high and low records may vary slightly from our data, if they occured in-between our weather recording intervals... More about our weather records

Advertising

Toamasina weather history for previous 24 hours

 ConditionsComfort  
Time TempWeatherWind HumidityBarometerVisibility
12:00 PM
Aug 31
79 °FScattered clouds.7 mph84%30.07 "HgN/A
11:00 AM79 °FScattered clouds.7 mph79%30.09 "HgN/A
10:00 AM79 °FScattered clouds.5 mph74%30.09 "HgN/A
9:00 AM77 °FPartly sunny.2 mph69%30.09 "HgN/A
8:00 AM73 °FPassing clouds.No wind83%30.09 "HgN/A
7:00 AM68 °FScattered clouds.No wind94%30.09 "HgN/A
6:00 AM63 °FPartly sunny.No wind100%30.07 "HgN/A
5:00 AM63 °FPassing clouds.No wind100%30.07 "HgN/A
4:00 AM63 °FPassing clouds.No wind100%30.07 "HgN/A
3:00 AM63 °FPassing clouds.No wind100%30.07 "HgN/A
2:00 AM66 °FPassing clouds.No wind88%30.09 "HgN/A
1:00 AM66 °FPassing clouds.No wind88%30.09 "HgN/A
12:00 AM66 °FPassing clouds.No wind88%30.12 "HgN/A
11:00 PM
Aug 30
68 °FPassing clouds.No wind88%30.12 "HgN/A
10:00 PM68 °FPassing clouds.No wind88%30.12 "HgN/A
9:00 PM68 °FPassing clouds.No wind88%30.12 "HgN/A
7:00 PM72 °FPassing clouds.No wind78%30.09 "HgN/A
6:00 PM75 °FPassing clouds.2 mph74%30.09 "HgN/A
5:00 PM77 °FPassing clouds.5 mph74%30.09 "HgN/A
4:00 PM79 °FPassing clouds.7 mph70%30.09 "HgN/A
3:00 PM79 °FPassing clouds.7 mph65%30.07 "HgN/A
2:00 PM81 °FPassing clouds.7 mph62%30.09 "HgN/A
1:00 PM81 °FPassing clouds.7 mph62%30.09 "HgN/A
Weather by CustomWeather, © 2014

See weather overviewHow to use our weather pages